OK,37,80,918,37,2014-10-01T01:40:00,0,28072688,190475
OK,37,80,918,37,2014-10-01T01:45:00,0,28073135,190475
OK,37,80,918,37,2014-10-01T01:50:00,0,28073583,190475
OK,37,80,918,37,2014-10-01T01:55:00,0,28073901,190475
OK,37,80,918,37,2014-10-01T02:00:00,0,28074350,190475
OK,37,80,918,37,2014-10-01T02:05:00,0,28074791,190475
OK,37,80,918,37,2014-10-01T02:10:00,0,28075239,190475
OK,37,80,918,37,2014-10-01T02:15:00,0,28075688,190475
OK,37,80,918,37,2014-10-01T02:20:00,0,28076072,190475
OK,37,80,918,37,2014-10-01T02:25:00,0,28076520,190475
OK,37,80,918,37,2014-10-01T02:30:00,0,28076969,190475
OK,37,80,918,37,2014-10-01T02:35:00,0,28077418,190475
OK,37,80,918,37,2014-10-01T02:40:00,0,28077821,190475
OK,37,80,918,37,2014-10-01T02:45:00,0,28078270,190475
OK,50,59,918,50,2014-10-01T02:50:00,3,28078715,190475
OK,63,47,918,63,2014-10-01T02:55:00,1,28079164,190475
OK,63,47,918,63,2014-10-01T03:00:00,0,28079606,190475
OK,63,47,918,63,2014-10-01T03:05:00,0,28080055,190475
OK,63,47,918,63,2014-10-01T03:10:00,0,28080389,190475
OK,63,47,918,63,2014-10-01T03:15:00,0,28080838,190475
OK,63,47,918,63,2014-10-01T03:20:00,0,28081287,190475
OK,63,47,918,63,2014-10-01T03:25:00,0,28081734,190475
OK,64,46,918,64,2014-10-01T03:30:00,2,28082183,190475
OK,53,56,918,53,2014-10-01T03:35:00,3,28082616,190475
OK,35,85,918,35,2014-10-01T03:40:00,3,28083048,190475
OK,44,67,918,44,2014-10-01T03:45:00,4,28083497,190475
OK,44,67,918,44,2014-10-01T03:50:00,2,28083946,190475
OK,51,58,918,51,2014-10-01T03:55:00,3,28084387,190475
OK,45,66,918,45,2014-10-01T04:00:00,4,28084813,190475
OK,63,47,918,63,2014-10-01T04:05:00,3,28085261,190475
OK,41,72,918,41,2014-10-01T04:10:00,4,28085706,190475
OK,52,57,918,52,2014-10-01T04:15:00,10,28086155,190475
OK,57,52,918,57,2014-10-01T04:20:00,12,28086597,190475
OK,40,74,918,40,2014-10-01T04:25:00,8,28087046,190475
OK,45,66,918,45,2014-10-01T04:30:00,7,28087491,190475
OK,50,59,918,50,2014-10-01T04:35:00,14,28087940,190475
OK,43,69,918,43,2014-10-01T04:40:00,17,28088365,190475
OK,66,45,918,66,2014-10-01T04:45:00,12,28088813,190475
OK,43,69,918,43,2014-10-01T04:50:00,11,28089243,190475
OK,42,71,918,42,2014-10-01T04:55:00,10,28089692,190475
OK,53,56,918,53,2014-10-01T05:00:00,15,28090141,190475
OK,59,50,918,59,2014-10-01T05:05:00,17,28090491,190475
OK,53,56,918,53,2014-10-01T05:10:00,16,28090934,190475
OK,57,52,918,57,2014-10-01T05:15:00,17,28091383,190475
OK,52,57,918,52,2014-10-01T05:20:00,21,28091800,190475
OK,53,56,918,53,2014-10-01T05:25:00,28,28092249,190475
OK,56,53,918,56,2014-10-01T05:30:00,34,28092693,190475
OK,66,45,918,66,2014-10-01T05:35:00,46,28093134,190475
OK,65,45,918,65,2014-10-01T05:40:00,43,28093565,190475
OK,59,50,918,59,2014-10-01T05:45:00,30,28094014,190475
OK,64,46,918,64,2014-10-01T05:50:00,26,28094426,190475
OK,65,45,918,65,2014-10-01T05:55:00,23,28094870,190475
OK,55,54,918,55,2014-10-01T06:00:00,20,28095317,190475
OK,63,47,918,63,2014-10-01T06:05:00,35,28095766,190475
OK,58,51,918,58,2014-10-01T06:10:00,39,28096179,190475
OK,53,56,918,53,2014-10-01T06:15:00,28,28096628,190475
OK,52,57,918,52,2014-10-01T06:20:00,18,28097062,190475
OK,55,54,918,55,2014-10-01T06:25:00,21,28097511,190475
OK,59,50,918,59,2014-10-01T06:30:00,23,28097960,190475
OK,55,54,918,55,2014-10-01T06:35:00,18,28098398,190475
OK,60,49,918,60,2014-10-01T06:40:00,13,28098841,190475
OK,62,48,918,62,2014-10-01T06:45:00,23,28099289,190475
OK,61,48,918,61,2014-10-01T06:50:00,19,28099632,190475
OK,55,54,918,55,2014-10-01T06:55:00,7,28100081,190475
OK,46,64,918,46,2014-10-01T07:00:00,11,28100388,190475
OK,49,60,918,49,2014-10-01T07:05:00,19,28100837,190475
OK,55,54,918,55,2014-10-01T07:10:00,12,28101208,190475
OK,59,50,918,59,2014-10-01T07:15:00,10,28101657,190475
OK,66,45,918,66,2014-10-01T07:20:00,8,28102093,190475
OK,63,47,918,63,2014-10-01T07:25:00,11,28102542,190475
OK,55,54,918,55,2014-10-01T07:30:00,16,28102971,190475
OK,51,58,918,51,2014-10-01T07:35:00,9,28103416,190475
OK,58,51,918,58,2014-10-01T07:40:00,5,28103861,190475
OK,58,51,918,58,2014-10-01T07:45:00,3,28104306,190475
OK,75,39,918,75,2014-10-01T07:50:00,6,28104748,190475
OK,75,39,918,75,2014-10-01T07:55:00,11,28105192,190475
OK,72,41,918,72,2014-10-01T08:00:00,15,28105632,190475
OK,68,43,918,68,2014-10-01T08:05:00,11,28106081,190475
OK,51,58,918,51,2014-10-01T08:10:00,6,28106518,190475
OK,61,48,918,61,2014-10-01T08:15:00,6,28106924,190475
OK,53,56,918,53,2014-10-01T08:20:00,5,28107356,190475
OK,56,53,918,56,2014-10-01T08:25:00,8,28107805,190475
OK,60,49,918,60,2014-10-01T08:30:00,9,28108244,190475
OK,69,43,918,69,2014-10-01T08:35:00,10,28108693,190475
OK,58,51,918,58,2014-10-01T08:40:00,9,28109121,190475
OK,54,55,918,54,2014-10-01T08:45:00,10,28109570,190475
OK,55,54,918,55,2014-10-01T08:50:00,6,28109913,190475
OK,62,48,918,62,2014-10-01T08:55:00,8,28110362,190475
OK,58,51,918,58,2014-10-01T09:00:00,11,28110785,190475
OK,51,58,918,51,2014-10-01T09:05:00,8,28111234,190475
OK,61,48,918,61,2014-10-01T09:10:00,8,28111663,190475
OK,63,47,918,63,2014-10-01T09:15:00,4,28112112,190475
OK,63,47,918,63,2014-10-01T09:20:00,12,28112453,190475
OK,61,48,918,61,2014-10-01T09:25:00,15,28112902,190475
OK,63,47,918,63,2014-10-01T09:30:00,6,28113326,190475
OK,66,45,918,66,2014-10-01T09:35:00,3,28113775,190475
OK,60,49,918,60,2014-10-01T09:40:00,12,28114207,190475
OK,60,49,918,60,2014-10-01T09:45:00,10,28114656,190475
OK,62,48,918,62,2014-10-01T09:50:00,10,28115010,190475
OK,67,44,918,67,2014-10-01T09:55:00,7,28115459,190475
OK,63,47,918,63,2014-10-01T10:00:00,5,28115871,190475
OK,55,54,918,55,2014-10-01T10:05:00,5,28116320,190475
OK,58,51,918,58,2014-10-01T10:10:00,10,28116728,190475
OK,71,42,918,71,2014-10-01T10:15:00,8,28117177,190475
OK,85,35,918,85,2014-10-01T10:20:00,5,28117602,190475
OK,65,45,918,65,2014-10-01T10:25:00,6,28118051,190475
OK,60,49,918,60,2014-10-01T10:30:00,8,28118496,190475
OK,62,48,918,62,2014-10-01T10:35:00,9,28118943,190475
OK,59,50,918,59,2014-10-01T10:40:00,6,28119387,190475
OK,75,39,918,75,2014-10-01T10:45:00,5,28119835,190475
OK,74,40,918,74,2014-10-01T10:50:00,10,28120283,190475
OK,63,47,918,63,2014-10-01T10:55:00,11,28120732,190475
OK,54,55,918,54,2014-10-01T11:00:00,9,28121115,190475
OK,54,55,918,54,2014-10-01T11:05:00,5,28121564,190475
OK,54,55,918,54,2014-10-01T11:10:00,9,28122002,190475
OK,57,52,918,57,2014-10-01T11:15:00,10,28122451,190475
OK,55,54,918,55,2014-10-01T11:20:00,6,28122892,190475
OK,70,42,918,70,2014-10-01T11:25:00,3,28123341,190475
OK,71,42,918,71,2014-10-01T11:30:00,6,28123773,190475
OK,66,45,918,66,2014-10-01T11:35:00,5,28124222,190475
OK,45,66,918,45,2014-10-01T11:40:00,3,28124624,190475
OK,70,42,918,70,2014-10-01T11:45:00,6,28125073,190475
OK,62,48,918,62,2014-10-01T11:50:00,14,28125502,190475
OK,62,48,918,62,2014-10-01T11:55:00,11,28125951,190475
OK,67,44,918,67,2014-10-01T12:00:00,6,28126303,190475
OK,67,44,918,67,2014-10-01T12:05:00,14,28126752,190475
OK,66,45,918,66,2014-10-01T12:10:00,16,28127201,190475
OK,51,58,918,51,2014-10-01T12:15:00,9,28127650,190475
OK,61,48,918,61,2014-10-01T12:20:00,8,28128078,190475
OK,61,48,918,61,2014-10-01T12:25:00,8,28128527,190475
OK,55,54,918,55,2014-10-01T12:30:00,8,28128962,190475
OK,65,45,918,65,2014-10-01T12:35:00,7,28129411,190475
OK,49,60,918,49,2014-10-01T12:40:00,6,28129845,190475
OK,56,53,918,56,2014-10-01T12:45:00,7,28130294,190475
OK,56,53,918,56,2014-10-01T12:50:00,7,28130722,190475
OK,70,42,918,70,2014-10-01T12:55:00,8,28131171,190475
OK,67,44,918,67,2014-10-01T13:00:00,10,28131608,190475
OK,56,53,918,56,2014-10-01T13:05:00,6,28132057,190475
OK,62,48,918,62,2014-10-01T13:10:00,7,28132495,190475
OK,62,48,918,62,2014-10-01T13:15:00,9,28132942,190475
OK,47,63,918,47,2014-10-01T13:20:00,8,28133380,190475
OK,52,57,918,52,2014-10-01T13:25:00,8,28133829,190475
OK,62,48,918,62,2014-10-01T13:30:00,7,28134268,190475
OK,49,60,918,49,2014-10-01T13:35:00,8,28134717,190475
OK,44,67,918,44,2014-10-01T13:40:00,7,28135136,190475
OK,44,67,918,44,2014-10-01T13:45:00,5,28135585,190475
OK,55,54,918,55,2014-10-01T13:50:00,2,28136022,190475
OK,39,76,918,39,2014-10-01T13:55:00,6,28136471,190475
OK,40,74,918,40,2014-10-01T14:00:00,9,28136911,190475
OK,47,63,918,47,2014-10-01T14:05:00,9,28137360,190475
OK,49,60,918,49,2014-10-01T14:10:00,7,28137794,190475
OK,49,60,918,49,2014-10-01T14:15:00,5,28138243,190475
OK,77,38,918,77,2014-10-01T14:20:00,11,28138671,190475
OK,69,43,918,69,2014-10-01T14:25:00,6,28139120,190475
OK,41,72,918,41,2014-10-01T14:30:00,7,28139531,190475
OK,42,71,918,42,2014-10-01T14:35:00,13,28139980,190475
OK,54,55,918,54,2014-10-01T14:40:00,9,28140422,190475
OK,54,55,918,54,2014-10-01T14:45:00,8,28140871,190475
OK,44,67,918,44,2014-10-01T14:50:00,7,28141297,190475
OK,44,67,918,44,2014-10-01T14:55:00,8,28141746,190475
OK,48,62,918,48,2014-10-01T15:00:00,11,28142174,190475
OK,54,55,918,54,2014-10-01T15:05:00,12,28142623,190475
OK,39,76,918,39,2014-10-01T15:10:00,7,28143050,190475
OK,42,71,918,42,2014-10-01T15:15:00,6,28143499,190475
OK,69,43,918,69,2014-10-01T15:20:00,5,28143947,190475
OK,42,71,918,42,2014-10-01T15:25:00,4,28144396,190475
OK,41,72,918,41,2014-10-01T15:30:00,9,28144818,190475
OK,42,71,918,42,2014-10-01T15:35:00,13,28145231,190475
OK,42,71,918,42,2014-10-01T15:40:00,7,28145680,190475
OK,36,82,918,36,2014-10-01T15:45:00,0,28146129,190475
OK,59,50,918,59,2014-10-01T15:50:00,5,28146578,190475
OK,51,58,918,51,2014-10-01T15:55:00,3,28146987,190475
OK,42,71,918,42,2014-10-01T16:00:00,3,28147430,190475
OK,43,69,918,43,2014-10-01T16:05:00,7,28147879,190475
OK,47,63,918,47,2014-10-01T16:10:00,13,28148280,190475
OK,48,62,918,48,2014-10-01T16:15:00,12,28148729,190475
OK,56,53,918,56,2014-10-01T16:20:00,11,28149168,190475
OK,55,54,918,55,2014-10-01T16:25:00,11,28149617,190475
OK,64,46,918,64,2014-10-01T16:30:00,6,28150043,190475
OK,82,36,918,82,2014-10-01T16:35:00,4,28150492,190475
OK,80,37,918,80,2014-10-01T16:40:00,8,28150910,190475
OK,80,37,918,80,2014-10-01T16:45:00,7,28151359,190475
OK,45,66,918,45,2014-10-01T16:50:00,7,28151808,190475
OK,45,66,918,45,2014-10-01T17:00:00,2,28152257,190475
OK,56,53,918,56,2014-10-01T17:05:00,5,28152703,190475
OK,61,48,918,61,2014-10-01T17:10:00,8,28153150,190475
OK,48,62,918,48,2014-10-01T17:15:00,6,28153599,190475
OK,45,66,918,45,2014-10-01T17:20:00,7,28154009,190475
OK,59,50,918,59,2014-10-01T17:25:00,10,28154458,190475
OK,45,66,918,45,2014-10-01T17:30:00,9,28154900,190475
OK,39,76,918,39,2014-10-01T17:35:00,6,28155348,190475
OK,44,67,918,44,2014-10-01T17:40:00,4,28155766,190475
OK,44,67,918,44,2014-10-01T17:45:00,2,28156215,190475
OK,42,71,918,42,2014-10-01T17:50:00,3,28156664,190475
OK,40,74,918,40,2014-10-01T17:55:00,4,28157102,190475
OK,38,78,918,38,2014-10-01T18:00:00,2,28157532,190475
OK,38,78,918,38,2014-10-01T18:05:00,2,28157980,190475
OK,31,96,918,31,2014-10-01T18:10:00,3,28158424,190475
OK,31,96,918,31,2014-10-01T18:15:00,3,28158870,190475
OK,46,64,918,46,2014-10-01T18:20:00,2,28159316,190475
OK,46,64,918,46,2014-10-01T18:25:00,2,28159651,190475
OK,42,71,918,42,2014-10-01T18:30:00,1,28160100,190475
OK,42,71,918,42,2014-10-01T18:35:00,1,28160549,190475
OK,42,71,918,42,2014-10-01T18:40:00,0,28160987,190475
OK,57,52,918,57,2014-10-01T18:45:00,3,28161436,190475
OK,57,52,918,57,2014-10-01T18:50:00,3,28161853,190475
OK,37,80,918,37,2014-10-01T18:55:00,2,28162302,190475
OK,43,69,918,43,2014-10-01T19:00:00,5,28162697,190475
OK,61,48,918,61,2014-10-01T19:05:00,2,28163135,190475
OK,35,85,918,35,2014-10-01T19:10:00,1,28163583,190475
OK,41,72,918,41,2014-10-01T19:15:00,2,28164032,190475
OK,41,72,918,41,2014-10-01T19:20:00,2,28164463,190475
OK,55,54,918,55,2014-10-01T19:25:00,3,28164912,190475
OK,58,51,918,58,2014-10-01T19:30:00,2,28165337,190475
OK,63,47,918,63,2014-10-01T19:35:00,2,28165785,190475
OK,51,58,918,51,2014-10-01T19:40:00,3,28166226,190475
OK,47,63,918,47,2014-10-01T19:45:00,3,28166588,190475
OK,47,63,918,47,2014-10-01T19:50:00,3,28167037,190475
OK,43,69,918,43,2014-10-01T19:55:00,2,28167466,190475
OK,43,69,918,43,2014-10-01T20:00:00,1,28167899,190475
OK,38,78,918,38,2014-10-01T20:05:00,6,28168348,190475
OK,38,78,918,38,2014-10-01T20:10:00,6,28168793,190475
OK,49,60,918,49,2014-10-01T20:15:00,4,28169242,190475
OK,40,74,918,40,2014-10-01T20:20:00,4,28169690,190475
OK,38,78,918,38,2014-10-01T20:25:00,1,28170116,190475
OK,48,62,918,48,2014-10-01T20:30:00,1,28170561,190475
OK,48,62,918,48,2014-10-01T20:35:00,1,28171009,190475
OK,48,62,918,48,2014-10-01T20:40:00,0,28171446,190475
OK,48,62,918,48,2014-10-01T20:45:00,0,28171892,190475
OK,33,90,918,33,2014-10-01T20:50:00,1,28172340,190475
OK,33,90,918,33,2014-10-01T20:55:00,0,28172786,190475
OK,33,90,918,33,2014-10-01T21:00:00,0,28173232,190475
OK,63,47,918,63,2014-10-01T21:05:00,1,28173681,190475
OK,60,49,918,60,2014-10-01T21:10:00,2,28174122,190475
OK,58,51,918,58,2014-10-01T21:15:00,1,28174571,190475
OK,58,51,918,58,2014-10-01T21:20:00,0,28174997,190475
OK,39,76,918,39,2014-10-01T21:25:00,1,28175393,190475
OK,81,36,918,81,2014-10-01T21:30:00,1,28175842,190475
OK,81,36,918,81,2014-10-01T21:35:00,1,28176291,190475
OK,72,41,918,72,2014-10-01T21:40:00,1,28176740,190475
OK,72,41,918,72,2014-10-01T21:45:00,1,28177097,190475
OK,72,41,918,72,2014-10-01T21:50:00,0,28177536,190475
OK,72,41,918,72,2014-10-01T21:55:00,0,28177982,190475
OK,72,41,918,72,2014-10-01T22:00:00,0,28178431,190475
OK,72,41,918,72,2014-10-01T22:05:00,0,28178878,190475
OK,72,41,918,72,2014-10-01T22:10:00,0,28179312,190475
OK,57,52,918,57,2014-10-01T22:15:00,1,28179755,190475
OK,57,52,918,57,2014-10-01T22:20:00,1,28180202,190475
OK,57,52,918,57,2014-10-01T22:25:00,0,28180600,190475
OK,57,52,918,57,2014-10-01T22:30:00,0,28181049,190475
OK,57,52,918,57,2014-10-01T22:35:00,0,28181473,190475
OK,36,82,918,36,2014-10-01T22:40:00,2,28181921,190475
OK,36,82,918,36,2014-10-01T22:45:00,2,28182368,190475
OK,36,82,918,36,2014-10-01T22:50:00,1,28182817,190475
OK,36,82,918,36,2014-10-01T22:55:00,1,28183234,190475
OK,36,82,918,36,2014-10-01T23:00:00,0,28183667,190475
OK,36,82,918,36,2014-10-01T23:05:00,0,28184112,190475
OK,36,82,918,36,2014-10-01T23:10:00,0,28184561,190475
OK,36,82,918,36,2014-10-01T23:15:00,0,28184996,190475
OK,36,82,918,36,2014-10-01T23:20:00,0,28185444,190475
OK,36,82,918,36,2014-10-01T23:25:00,0,28185875,190475
OK,36,82,918,36,2014-10-01T23:30:00,0,28186267,190475
OK,36,82,918,36,2014-10-01T23:40:00,0,28187114,190475
OK,36,82,918,36,2014-10-01T23:55:00,0,28188446,190475
OK,36,82,918,36,2014-10-02T00:00:00,0,28188882,190475
OK,36,82,918,36,2014-10-02T00:05:00,0,28189331,190475
OK,36,82,918,36,2014-10-02T00:10:00,0,28189753,190475
OK,36,82,918,36,2014-10-02T00:15:00,0,28190202,190475
OK,36,82,918,36,2014-10-02T00:20:00,0,28190555,190475
OK,36,82,918,36,2014-10-02T00:30:00,0,28191453,190475
OK,36,82,918,36,2014-10-02T00:35:00,0,28191759,190475
OK,36,82,918,36,2014-10-02T00:40:00,0,28192208,190475
OK,36,82,918,36,2014-10-02T00:45:00,0,28192641,190475
OK,36,82,918,36,2014-10-02T00:50:00,0,28193085,190475
OK,36,82,918,36,2014-10-02T00:55:00,0,28193452,190475
OK,36,82,918,36,2014-10-02T01:05:00,0,28194350,190475
OK,36,82,918,36,2014-10-02T01:10:00,0,28194799,190475
OK,36,82,918,36,2014-10-02T01:15:00,0,28195040,190475
OK,43,69,918,43,2014-10-02T01:30:00,1,28195933,190475
OK,43,69,918,43,2014-10-02T01:35:00,0,28196666,190475
OK,43,69,918,43,2014-10-02T01:40:00,0,28197089,190475
OK,43,69,918,43,2014-10-02T01:45:00,0,28197538,190475
OK,43,69,918,43,2014-10-02T01:50:00,0,28197986,190475
OK,43,69,918,43,2014-10-02T01:55:00,0,28198434,190475
OK,43,69,918,43,2014-10-02T02:00:00,0,28198883,190475
OK,43,69,918,43,2014-10-02T02:05:00,0,28199256,190475
OK,43,69,918,43,2014-10-02T02:10:00,0,28199697,190475
OK,43,69,918,43,2014-10-02T02:15:00,0,28200139,190475
OK,43,69,918,43,2014-10-02T02:20:00,0,28200582,190475
OK,43,69,918,43,2014-10-02T02:25:00,0,28201031,190475
OK,43,69,918,43,2014-10-02T02:30:00,0,28201462,190475
OK,43,69,918,43,2014-10-02T02:45:00,0,28202360,190475
OK,42,71,918,42,2014-10-02T02:50:00,1,28202802,190475
OK,42,71,918,42,2014-10-02T02:55:00,0,28203250,190475
OK,49,60,918,49,2014-10-02T03:00:00,1,28203685,190475
OK,49,60,918,49,2014-10-02T03:10:00,0,28204134,190475
OK,57,52,918,57,2014-10-02T03:25:00,3,28204583,190475
OK,68,43,918,68,2014-10-02T03:30:00,0,28205032,190475
OK,49,60,918,49,2014-10-02T03:35:00,2,28205460,190475
OK,31,96,918,31,2014-10-02T03:40:00,0,28205907,190475
OK,59,50,918,59,2014-10-02T03:45:00,1,28206290,190475
OK,59,50,918,59,2014-10-02T03:55:00,0,28207188,190475
OK,52,57,918,52,2014-10-02T04:00:00,1,28207608,190475
OK,52,57,918,52,2014-10-02T04:05:00,0,28208056,190475
OK,52,57,918,52,2014-10-02T04:10:00,0,28208483,190475
OK,52,57,918,52,2014-10-02T04:15:00,0,28208932,190475
OK,53,56,918,53,2014-10-02T04:20:00,9,28209370,190475
OK,48,62,918,48,2014-10-02T04:25:00,0,28209819,190475
OK,49,60,918,49,2014-10-02T04:30:00,9,28210242,190475
OK,59,50,918,59,2014-10-02T04:35:00,6,28210691,190475
OK,53,56,918,53,2014-10-02T04:40:00,20,28211116,190475
OK,57,52,918,57,2014-10-02T04:45:00,1,28211560,190475
OK,57,52,918,57,2014-10-02T04:50:00,0,28211938,190475
OK,44,67,918,44,2014-10-02T04:55:00,8,28212387,190475
OK,41,72,918,41,2014-10-02T05:00:00,2,28212816,190475
OK,65,45,918,65,2014-10-02T05:05:00,9,28213265,190475
OK,46,64,918,46,2014-10-02T05:10:00,1,28213703,190475
OK,42,71,918,42,2014-10-02T05:15:00,6,28214152,190475
OK,39,76,918,39,2014-10-02T05:20:00,2,28214565,190475
OK,60,49,918,60,2014-10-02T05:25:00,11,28215014,190475
OK,67,44,918,67,2014-10-02T05:30:00,4,28215430,190475
OK,68,43,918,68,2014-10-02T05:35:00,0,28215879,190475
OK,53,56,918,53,2014-10-02T05:40:00,22,28216223,190475
OK,52,57,918,52,2014-10-02T05:45:00,11,28216658,190475
OK,47,63,918,47,2014-10-02T05:50:00,0,28217105,190475
OK,63,47,918,63,2014-10-02T05:55:00,19,28217554,190475
OK,59,50,918,59,2014-10-02T06:00:00,16,28217993,190475
OK,67,44,918,67,2014-10-02T06:05:00,17,28218442,190475
OK,67,44,918,67,2014-10-02T06:10:00,11,28218862,190475
OK,66,45,918,66,2014-10-02T06:15:00,19,28219311,190475
OK,60,49,918,60,2014-10-02T06:20:00,18,28219684,190475
OK,51,58,918,51,2014-10-02T06:25:00,24,28220133,190475
OK,55,54,918,55,2014-10-02T06:30:00,22,28220567,190475
OK,54,55,918,54,2014-10-02T06:35:00,18,28221016,190475
OK,46,64,918,46,2014-10-02T06:40:00,14,28221398,190475
OK,47,63,918,47,2014-10-02T06:45:00,11,28221683,190475
OK,52,57,918,52,2014-10-02T07:00:00,8,28222277,190475
OK,54,55,918,54,2014-10-02T07:05:00,11,28222726,190475
OK,50,59,918,50,2014-10-02T07:10:00,11,28223157,190475
OK,49,60,918,49,2014-10-02T07:15:00,6,28223593,190475
OK,47,63,918,47,2014-10-02T07:20:00,0,28224040,190475
OK,63,47,918,63,2014-10-02T07:25:00,7,28224395,190475
OK,74,40,918,74,2014-10-02T07:30:00,1,28224844,190475
OK,52,57,918,52,2014-10-02T07:35:00,7,28225293,190475
OK,103,28,918,103,2014-10-02T07:40:00,1,28225615,190475
OK,73,40,918,73,2014-10-02T07:50:00,5,28226505,190475
OK,56,53,918,56,2014-10-02T07:55:00,10,28226954,190475
OK,56,53,918,56,2014-10-02T08:00:00,6,28227369,190475
OK,54,55,918,54,2014-10-02T08:05:00,5,28227818,190475
OK,47,63,918,47,2014-10-02T08:10:00,0,28228177,190475
OK,64,46,918,64,2014-10-02T08:15:00,2,28228626,190475
OK,58,51,918,58,2014-10-02T08:20:00,0,28229036,190475
OK,61,48,918,61,2014-10-02T08:25:00,5,28229485,190475
OK,87,34,918,87,2014-10-02T08:30:00,0,28229835,190475
OK,74,40,918,74,2014-10-02T08:35:00,8,28230284,190475
OK,73,40,918,73,2014-10-02T08:40:00,7,28230651,190475
OK,70,42,918,70,2014-10-02T08:45:00,0,28231099,190475
OK,71,42,918,71,2014-10-02T08:50:00,8,28231522,190475
OK,70,42,918,70,2014-10-02T08:55:00,1,28231971,190475
OK,56,53,918,56,2014-10-02T09:00:00,7,28232313,190475
OK,68,43,918,68,2014-10-02T09:10:00,0,28232762,190475
OK,43,69,918,43,2014-10-02T09:15:00,3,28233211,190475
OK,42,71,918,42,2014-10-02T09:20:00,2,28233635,190475
OK,74,40,918,74,2014-10-02T09:25:00,3,28234084,190475
OK,61,48,918,61,2014-10-02T09:30:00,0,28234417,190475
OK,52,57,918,52,2014-10-02T09:35:00,4,28234866,190475
OK,47,63,918,47,2014-10-02T09:40:00,1,28235293,190475
OK,73,40,918,73,2014-10-02T09:45:00,3,28235742,190475
OK,62,48,918,62,2014-10-02T09:50:00,1,28236185,190475
OK,69,43,918,69,2014-10-02T09:55:00,8,28236632,190475
OK,57,52,918,57,2014-10-02T10:00:00,2,28237035,190475
OK,62,48,918,62,2014-10-02T10:05:00,0,28237483,190475
OK,49,60,918,49,2014-10-02T10:10:00,11,28237931,190475
OK,59,50,918,59,2014-10-02T10:15:00,10,28238378,190475
OK,74,40,918,74,2014-10-02T10:20:00,9,28238819,190475
OK,75,39,918,75,2014-10-02T10:25:00,2,28239268,190475
OK,75,39,918,75,2014-10-02T10:30:00,0,28239698,190475
OK,53,56,918,53,2014-10-02T10:35:00,9,28240147,190475
OK,63,47,918,63,2014-10-02T10:40:00,10,28240591,190475
OK,71,42,918,71,2014-10-02T10:45:00,6,28241040,190475
OK,83,35,918,83,2014-10-02T10:50:00,1,28241472,190475
OK,53,56,918,53,2014-10-02T10:55:00,10,28241920,190475
OK,63,47,918,63,2014-10-02T11:00:00,1,28242316,190475
OK,63,47,918,63,2014-10-02T11:05:00,0,28242765,190475
OK,61,48,918,61,2014-10-02T11:10:00,14,28243214,190475
OK,64,46,918,64,2014-10-02T11:15:00,9,28243548,190475
OK,71,42,918,71,2014-10-02T11:20:00,9,28243977,190475
OK,69,43,918,69,2014-10-02T11:25:00,4,28244406,190475
OK,76,39,918,76,2014-10-02T11:30:00,0,28244855,190475
OK,54,55,918,54,2014-10-02T11:35:00,12,28245304,190475
OK,68,43,918,68,2014-10-02T11:40:00,8,28245710,190475
OK,32,93,918,32,2014-10-02T11:45:00,0,28246159,190475
OK,77,38,918,77,2014-10-02T11:50:00,7,28246596,190475
OK,77,38,918,77,2014-10-02T11:55:00,8,28247045,190475
OK,60,49,918,60,2014-10-02T12:00:00,8,28247491,190475
OK,37,80,918,37,2014-10-02T12:05:00,2,28247921,190475
OK,41,72,918,41,2014-10-02T12:10:00,0,28248370,190475
OK,48,62,918,48,2014-10-02T12:15:00,8,28248817,190475
OK,69,43,918,69,2014-10-02T12:20:00,4,28249245,190475
OK,57,52,918,57,2014-10-02T12:25:00,4,28249689,190475
OK,55,54,918,55,2014-10-02T12:30:00,2,28250108,190475
OK,63,47,918,63,2014-10-02T12:35:00,9,28250506,190475
OK,79,37,918,79,2014-10-02T13:20:00,2,28251831,190475
OK,70,42,918,70,2014-10-02T13:30:00,10,28252415,190475
OK,63,47,918,63,2014-10-02T13:35:00,6,28252857,190475
OK,62,48,918,62,2014-10-02T13:40:00,0,28253274,190475
OK,68,43,918,68,2014-10-02T13:45:00,10,28253723,190475
OK,83,35,918,83,2014-10-02T13:50:00,9,28254128,190475
OK,56,53,918,56,2014-10-02T13:55:00,6,28254449,190475
OK,55,54,918,55,2014-10-02T14:10:00,7,28255026,190475
OK,48,62,918,48,2014-10-02T14:15:00,2,28255475,190475
OK,90,33,918,90,2014-10-02T14:20:00,4,28255903,190475
OK,91,32,918,91,2014-10-02T14:25:00,3,28256352,190475
OK,64,46,918,64,2014-10-02T14:30:00,5,28256780,190475
OK,59,50,918,59,2014-10-02T14:35:00,4,28257229,190475
OK,53,56,918,53,2014-10-02T14:40:00,2,28257670,190475
OK,45,66,918,45,2014-10-02T14:45:00,8,28258118,190475
OK,59,50,918,59,2014-10-02T14:50:00,5,28258551,190475
OK,64,46,918,64,2014-10-02T14:55:00,5,28258997,190475
OK,54,55,918,54,2014-10-02T15:00:00,9,28259446,190475
OK,57,52,918,57,2014-10-02T15:05:00,6,28259893,190475
OK,66,45,918,66,2014-10-02T15:10:00,3,28260326,190475
OK,60,49,918,60,2014-10-02T15:15:00,8,28260775,190475
OK,60,49,918,60,2014-10-02T15:20:00,6,28261215,190475
OK,73,40,918,73,2014-10-02T15:25:00,5,28261597,190475
OK,63,47,918,63,2014-10-02T15:30:00,2,28262027,190475
OK,54,55,918,54,2014-10-02T15:40:00,2,28262920,190475
OK,58,51,918,58,2014-10-02T15:45:00,4,28263358,190475
OK,67,44,918,67,2014-10-02T15:50:00,3,28263799,190475
OK,87,34,918,87,2014-10-02T15:55:00,0,28264201,190475
OK,40,74,918,40,2014-10-02T16:00:00,11,28264650,190475
OK,42,71,918,42,2014-10-02T16:05:00,5,28265088,190475
OK,32,93,918,32,2014-10-02T16:10:00,1,28265528,190475
OK,32,93,918,32,2014-10-02T16:15:00,1,28265924,190475